When you browse on this site, cookies collect data to enhance your experience and personalize the content and advertising you see.
Visit our Privacy Policy to learn more. By continuing to use the site, you agree to this use of cookies and data.
  • In Romania
  • List of Countries
  • For 7 days
  • Water Temperature
  • Weather Map
  • Weather Widgets
  • user-avatar
    Login

    Hourly Weather Saint-Leu-la-Foret

    Today, 20 August, Tuesday

    Time Temperature Precipitation Wind Pressure Humidity
    00:00 +16°C° 0 mm 1 mps 757 mmHg 67%
    01:00 +16°C° 0 mm 1 mps 757 mmHg 69%
    02:00 +15°C° 0 mm 1 mps 757 mmHg 70%
    03:00 +15°C° 0 mm 1 mps 757 mmHg 72%
    04:00 +15°C° 0 mm 1 mps 757 mmHg 72%
    05:00 +15°C° 0 mm 1 mps 758 mmHg 71%
    06:00 +16°C° 0 mm 1 mps 758 mmHg 71%
    07:00 +18°C° 0 mm 1 mps 758 mmHg 66%
    08:00 +19°C° 0 mm 1 mps 758 mmHg 62%
    09:00 +19°C° 0 mm 2 mps 759 mmHg 57%
    10:00 +20°C° 0 mm 2 mps 759 mmHg 54%
    11:00 +21°C° 0 mm 2 mps 759 mmHg 50%
    12:00 +23°C° 0 mm 2 mps 759 mmHg 46%
    13:00 +23°C° 0 mm 2 mps 759 mmHg 45%
    14:00 +23°C° 0 mm 2 mps 759 mmHg 44%
    15:00 +22°C° 0 mm 3 mps 759 mmHg 44%
    16:00 +22°C° 0 mm 3 mps 759 mmHg 46%
    17:00 +21°C° 0 mm 3 mps 760 mmHg 49%
    18:00 +21°C° 0 mm 3 mps 760 mmHg 51%
    19:00 +19°C° 0 mm 2 mps 760 mmHg 57%
    20:00 +18°C° 0 mm 2 mps 760 mmHg 62%
    21:00 +16°C° 0 mm 2 mps 761 mmHg 68%
    22:00 +15°C° 0 mm 2 mps 761 mmHg 71%
    23:00 +15°C° 0 mm 2 mps 761 mmHg 73%

    Tomorrow, 21 August, Wednesday

    Time Temperature Precipitation Wind Pressure Humidity
    00:00 +14°C° 0 mm 1 mps 761 mmHg 76%
    01:00 +14°C° 0 mm 1 mps 761 mmHg 77%
    02:00 +13°C° 0 mm 1 mps 761 mmHg 77%
    03:00 +13°C° 0 mm 1 mps 761 mmHg 78%
    04:00 +13°C° 0 mm 1 mps 761 mmHg 77%
    05:00 +14°C° 0 mm 1 mps 761 mmHg 76%
    06:00 +14°C° 0 mm 1 mps 761 mmHg 75%
    07:00 +16°C° 0 mm 1 mps 761 mmHg 67%
    08:00 +19°C° 0 mm 1 mps 761 mmHg 60%
    09:00 +21°C° 0 mm 1 mps 762 mmHg 52%
    10:00 +22°C° 0 mm 1 mps 761 mmHg 48%
    11:00 +23°C° 0 mm 1 mps 761 mmHg 43%
    12:00 +23°C° 0 mm 0 mps 761 mmHg 38%
    13:00 +25°C° 0 mm 1 mps 760 mmHg 36%
    14:00 +25°C° 0 mm 1 mps 760 mmHg 34%
    15:00 +26°C° 0 mm 1 mps 760 mmHg 32%
    16:00 +25°C° 0 mm 1 mps 760 mmHg 35%
    17:00 +24°C° 0 mm 1 mps 759 mmHg 39%
    18:00 +23°C° 0 mm 2 mps 759 mmHg 42%
    19:00 +21°C° 0 mm 2 mps 759 mmHg 45%
    20:00 +20°C° 0 mm 2 mps 760 mmHg 49%
    21:00 +18°C° 0 mm 2 mps 760 mmHg 52%
    22:00 +19°C° 0 mm 1 mps 760 mmHg 54%
    23:00 +18°C° 0 mm 1 mps 760 mmHg 56%

    Day after tomorrow, 22 August, Thursday

    Time Temperature Precipitation Wind Pressure Humidity
    00:00 +18°C° 0 mm 1 mps 760 mmHg 58%
    01:00 +18°C° 0 mm 1 mps 760 mmHg 59%
    02:00 +16°C° 0 mm 1 mps 759 mmHg 60%
    03:00 +16°C° 0 mm 1 mps 759 mmHg 62%
    04:00 +16°C° 0 mm 1 mps 760 mmHg 62%
    05:00 +16°C° 0 mm 1 mps 760 mmHg 62%
    06:00 +15°C° 0 mm 0 mps 760 mmHg 62%
    07:00 +19°C° 0 mm 1 mps 760 mmHg 56%
    08:00 +21°C° 0 mm 1 mps 760 mmHg 50%
    09:00 +23°C° 0 mm 1 mps 761 mmHg 44%
    10:00 +24°C° 0 mm 1 mps 760 mmHg 41%
    11:00 +26°C° 0 mm 1 mps 760 mmHg 37%
    12:00 +27°C° 0 mm 1 mps 760 mmHg 34%
    13:00 +27°C° 0 mm 2 mps 760 mmHg 33%
    14:00 +27°C° 0 mm 2 mps 760 mmHg 32%
    15:00 +28°C° 0 mm 2 mps 759 mmHg 31%
    16:00 +27°C° 0 mm 2 mps 759 mmHg 35%
    17:00 +26°C° 0 mm 2 mps 759 mmHg 39%
    18:00 +25°C° 0 mm 2 mps 759 mmHg 43%
    19:00 +23°C° 0 mm 2 mps 760 mmHg 48%
    20:00 +21°C° 0 mm 3 mps 760 mmHg 54%
    21:00 +19°C° 0 mm 3 mps 760 mmHg 59%
    22:00 +18°C° 0 mm 3 mps 760 mmHg 61%
    23:00 +18°C° 0 mm 2 mps 760 mmHg 64%

    23 August, Friday

    Time Temperature Precipitation Wind Pressure Humidity
    00:00 +17°C° 0 mm 2 mps 760 mmHg 66%
    01:00 +16°C° 0 mm 2 mps 760 mmHg 67%
    02:00 +16°C° 0 mm 2 mps 760 mmHg 68%
    03:00 +16°C° 0 mm 2 mps 759 mmHg 69%
    04:00 +16°C° 0 mm 2 mps 759 mmHg 68%
    05:00 +16°C° 0 mm 2 mps 759 mmHg 68%
    06:00 +16°C° 0 mm 2 mps 759 mmHg 67%
    07:00 +18°C° 0 mm 2 mps 759 mmHg 61%
    08:00 +20°C° 0 mm 3 mps 759 mmHg 55%
    09:00 +22°C° 0 mm 3 mps 759 mmHg 49%
    10:00 +24°C° 0 mm 3 mps 759 mmHg 46%
    11:00 +26°C° 0 mm 3 mps 759 mmHg 44%
    12:00 +27°C° 0 mm 3 mps 758 mmHg 41%
    13:00 +28°C° 0 mm 3 mps 758 mmHg 40%
    14:00 +28°C° 0 mm 3 mps 758 mmHg 38%
    15:00 +29°C° 0 mm 3 mps 757 mmHg 37%
    16:00 +28°C° 0 mm 3 mps 757 mmHg 41%
    17:00 +27°C° 0 mm 3 mps 757 mmHg 44%
    18:00 +26°C° 0 mm 3 mps 757 mmHg 48%
    19:00 +25°C° 0 mm 3 mps 757 mmHg 52%
    20:00 +24°C° 0 mm 2 mps 757 mmHg 57%
    21:00 +21°C° 0 mm 2 mps 757 mmHg 61%
    22:00 +21°C° 0 mm 2 mps 756 mmHg 64%
    23:00 +20°C° 0 mm 2 mps 756 mmHg 67%

    24 August, Saturday

    Time Temperature Precipitation Wind Pressure Humidity
    00:00 +19°C° 0 mm 2 mps 756 mmHg 70%
    01:00 +19°C° 0 mm 2 mps 756 mmHg 72%
    02:00 +18°C° 0 mm 2 mps 755 mmHg 74%
    03:00 +19°C° 0 mm 1 mps 755 mmHg 76%
    04:00 +19°C° 0 mm 1 mps 755 mmHg 76%
    05:00 +19°C° 0 mm 1 mps 755 mmHg 76%
    06:00 +18°C° 0 mm 2 mps 755 mmHg 76%
    07:00 +20°C° 0 mm 2 mps 755 mmHg 69%
    08:00 +23°C° 0 mm 2 mps 755 mmHg 63%
    09:00 +25°C° 0 mm 2 mps 755 mmHg 56%
    10:00 +27°C° 0 mm 2 mps 755 mmHg 51%
    11:00 +28°C° 0 mm 2 mps 754 mmHg 46%
    12:00 +30°C° 0 mm 2 mps 754 mmHg 41%
    13:00 +31°C° 0 mm 1 mps 754 mmHg 38%
    14:00 +32°C° 0 mm 1 mps 753 mmHg 35%
    15:00 +32°C° 0 mm 1 mps 753 mmHg 31%
    16:00 +31°C° 0 mm 1 mps 753 mmHg 34%
    17:00 +30°C° 0 mm 2 mps 752 mmHg 37%
    18:00 +30°C° 0 mm 2 mps 752 mmHg 39%
    19:00 +28°C° 0 mm 2 mps 752 mmHg 44%
    20:00 +26°C° 0 mm 2 mps 753 mmHg 48%
    21:00 +25°C° 0 mm 2 mps 753 mmHg 52%
    22:00 +24°C° 0 mm 1 mps 753 mmHg 54%
    23:00 +24°C° 0 mm 1 mps 753 mmHg 56%

    25 August, Sunday

    Time Temperature Precipitation Wind Pressure Humidity
    00:00 +23°C° 0 mm 1 mps 753 mmHg 58%
    01:00 +23°C° 0 mm 1 mps 752 mmHg 58%
    02:00 +22°C° 0 mm 1 mps 752 mmHg 59%
    03:00 +22°C° 0 mm 1 mps 752 mmHg 59%
    04:00 +22°C° 0 mm 1 mps 752 mmHg 59%
    05:00 +22°C° 0 mm 1 mps 752 mmHg 59%
    06:00 +22°C° 0 mm 1 mps 752 mmHg 59%
    07:00 +24°C° 0 mm 1 mps 752 mmHg 53%
    08:00 +26°C° 0 mm 1 mps 752 mmHg 48%
    09:00 +28°C° 0 mm 1 mps 753 mmHg 43%
    10:00 +29°C° 0 mm 2 mps 753 mmHg 40%
    11:00 +30°C° 0 mm 3 mps 753 mmHg 36%
    12:00 +32°C° 0 mm 4 mps 753 mmHg 33%
    13:00 +31°C° 0 mm 3 mps 752 mmHg 35%
    14:00 +30°C° 0 mm 3 mps 752 mmHg 36%
    15:00 +30°C° 0 mm 3 mps 752 mmHg 37%
    16:00 +29°C° 0.3 mm 3 mps 752 mmHg 42%
    17:00 +28°C° 0.3 mm 2 mps 752 mmHg 46%
    18:00 +27°C° 0.3 mm 2 mps 752 mmHg 50%
    19:00 +26°C° 0.6 mm 2 mps 752 mmHg 54%
    20:00 +25°C° 0.6 mm 1 mps 753 mmHg 59%
    21:00 +24°C° 0.6 mm 1 mps 753 mmHg 63%
    22:00 +23°C° 0 mm 1 mps 753 mmHg 66%
    23:00 +23°C° 0 mm 1 mps 753 mmHg 68%
    Show more